Header for Extended Forecast Station List Page

Search by: ID | Name | Date | Parm | Value | Avg | % Avg
Sort by: ID | Name | Date | Parm | Value | Avg | % Avg

Enter search or view all records.

Click on id for station plot
#IDNameDateParmValueAvg% Avg
0LEOI1KOOTENAI-AT LEONIA11-28-2022DISCHARGE (KAF)2045240385
1FCFM8NF FLATHEAD-NEAR COLUMBIA FALLS11-28-2022DISCHARGE (KAF)11517765
2WGCM8MF FLATHEAD-NEAR WEST GLACIER11-28-2022DISCHARGE (KAF)4615929
3CFMM8FLATHEAD-AT COLUMBIA FALLS11-28-2022DISCHARGE (KAF)83995388
4DLGM8CLARK FORK-AT DEER LODGE11-28-2022DISCHARGE (KAF)435284
5DRMM8CLARK FORK-NR DRUMMOND11-28-2022DISCHARGE (KAF)11112688
6RCCM8ROCK CREEK-NEAR CLINTON11-28-2022DISCHARGE (KAF)4846105
7BONM8BLACKFOOT-NEAR BONNER11-28-2022DISCHARGE (KAF)11114079
8ABOM8CLARK FORK-ABOVE MISSOULA11-28-2022DISCHARGE (KAF)28233584
9BITM8BITTERROOT-NEAR MISSOULA11-28-2022DISCHARGE (KAF)16021076
10BELM8CLARK FORK-BELOW MISSOULA11-28-2022DISCHARGE (KAF)44355680
11STRM8ST. REGIS-NEAR ST. REGIS11-28-2022DISCHARGE (KAF)194739
12SRGM8CLARK FORK-AT ST REGIS11-28-2022DISCHARGE (KAF)54674773
13PRTI1PRIEST-NEAR PRIEST RIVER11-28-2022DISCHARGE (KAF)12423852
14SPOW1SPOKANE-AT SPOKANE11-28-2022DISCHARGE (KAF)609131446
15SATI1ST MARIES-NEAR SANTA11-28-2022DISCHARGE (KAF)237232
16CIBW1COLUMBIA-AT INTL BOUNDARY11-28-2022DISCHARGE (KAF)162261992381
17LAUW1KETTLE-AT LAURIER11-28-2022DISCHARGE (KAF)6515043
18TONW1OKANOGAN-NEAR TONASKET11-28-2022DISCHARGE (KAF)19131261
19PATW1METHOW-NEAR PATEROS11-28-2022DISCHARGE (KAF)7310768
20ARDW1ENTIAT-NEAR ARDENVOIR11-28-2022DISCHARGE (KAF)132652
21PESW1WENATCHEE-AT PESHASTIN11-28-2022DISCHARGE (KAF)13633840
22EASW1YAKIMA-AT EASTON11-28-2022DISCHARGE (KAF)448154
23TNAW1TEANAWAY-BELOW FORKS11-28-2022DISCHARGE (KAF)275846
24UMTW1YAKIMA-AT UMTANUM11-28-2022DISCHARGE (KAF)20334160
25CLFW1NACHES-NEAR CLIFFDEL11-28-2022DISCHARGE (KAF)5413141
26NACW1NACHES-NEAR NACHES11-28-2022DISCHARGE (KAF)5317929
27PARW1YAKIMA-NEAR PARKER11-28-2022DISCHARGE (KAF)34657760
28KIOW1YAKIMA-AT KIONA11-28-2022DISCHARGE (KAF)47282957
29CHEI1FALL RIVER-NEAR CHESTER11-28-2022DISCHARGE (KAF)10111390
30ANTI1HENRYS FORK-AT ST. ANTHONY11-28-2022DISCHARGE (KAF)30138079
31TEAI1TETON-NEAR ST. ANTHONY11-28-2022DISCHARGE (KAF)719773
32REXI1HENRYS FORK-AT REXBURG11-28-2022DISCHARGE (KAF)35043680
33JKSW4SNAKE-NEAR JACKSON11-28-2022DISCHARGE (KAF)24231577
34ALPW4SNAKE-NEAR ALPINE11-28-2022DISCHARGE (KAF)29137578
35HEII1SNAKE-NEAR HEISE11-28-2022DISCHARGE (KAF)496383129
36SIFI1SNAKE-AB EAGLE ROCK NR IDAHO FALLS11-28-2022DISCHARGE (KAF)67167599
37SHYI1SNAKE-NEAR SHELLEY11-28-2022DISCHARGE (KAF)65167996
38SNAI1SNAKE-AT BLACKFOOT11-28-2022DISCHARGE (KAF)58659499
39BFTI1SNAKE-NEAR BLACKFOOT11-28-2022DISCHARGE (KAF)588582101
40PIHI1PORTNEUF-AT POCATELLO11-28-2022DISCHARGE (KAF)405572
41MILI1SNAKE-AT MILNER11-28-2022DISCHARGE (KAF)M55M
42HOTI1BRUNEAU-NEAR HOT SPRINGS11-28-2022DISCHARGE (KAF)133340
43SWAI1SNAKE-BELOW SWAN FALLS11-28-2022DISCHARGE (KAF)1727187892
44HWRI1BIG LOST-AT HOWELL RANCH NEAR CHILLY11-28-2022DISCHARGE (KAF)171893
45HALI1BIG WOOD-AT HAILEY11-28-2022DISCHARGE (KAF)303880
46BIGI1BOISE-AT GLENWOOD BRIDGE11-28-2022DISCHARGE (KAF)12765196
47PARI1BOISE-NEAR PARMA11-28-2022DISCHARGE (KAF)267202132
48EMMI1PAYETTE-NEAR EMMETT11-28-2022DISCHARGE (KAF)29236081
49WSRI1WEISER-NEAR WEISER11-28-2022DISCHARGE (KAF)15918984
50WEII1SNAKE-AT WEISER11-28-2022DISCHARGE (KAF)2737298092
51WHBI1SALMON-AT WHITEBIRD11-28-2022DISCHARGE (KAF)846107079
52TRYO3GRANDE RONDE-TROY11-28-2022DISCHARGE (KAF)28550357
53ANAW1SNAKE-NEAR ANATONE11-28-2022DISCHARGE (KAF)4157554775
54ORFI1CLEARWATER-AT OROFINO11-28-2022DISCHARGE (KAF)417100242
55SPDI1CLEARWATER-AT SPALDING11-28-2022DISCHARGE (KAF)1040188455
56TCHW1WALLA WALLA-NEAR TOUCHET11-28-2022DISCHARGE (KAF)17719690
57GIBO3UMATILLA-NEAR GIBBON11-28-2022DISCHARGE (KAF)505591
58PDTO3UMATILLA-AT PENDLETON11-28-2022DISCHARGE (KAF)11914284
59MYKO3MCKAY CREEK-NEAR PILOT ROCK11-28-2022DISCHARGE (KAF)4035114
60UMAO3UMATILLA-NEAR UMATILLA11-28-2022DISCHARGE (KAF)11613486
61MONO3NF JOHN DAY-AT MONUMENT11-28-2022DISCHARGE (KAF)13023156
62SERO3JOHN DAY-AT SERVICE CK11-28-2022DISCHARGE (KAF)20836457
63MODO3DESCHUTES-AT MOODY NR BIGGS11-28-2022DISCHARGE (KAF)991141570
64PITW1KLICKITAT-NEAR PITT11-28-2022DISCHARGE (KAF)31837286
65HODO3HOOD-NEAR TUCKER BRIDGE11-28-2022DISCHARGE (KAF)267248108
66UNDW1WHITE SALMON-NEAR UNDERWOOD11-28-2022DISCHARGE (KAF)22128478
67LYDM8KOOTENAI-LIBBY DAM11-28-2022INFLOW (KAF)61183373
68HHWM8SF FLATHEAD-HUNGRY HORSE DAM11-28-2022INFLOW (KAF)12524851
69KERM8FLATHEAD-SELI’Š KSANKA QLISPE’ DAM11-28-2022INFLOW (KAF)939141266
70NOXM8CLARK FORK-NOXON RAPIDS DAM11-28-2022INFLOW (KAF)2421312777
71CABI1CLARK FORK-CABINET GORGE DAM11-28-2022INFLOW (KAF)2673357575
72ALFW1PEND OREILLE-ALBENI FALLS DAM11-28-2022INFLOW (KAF)2965405373
73COEI1COEUR D ALENE-COEUR D ALENE LAKE11-28-2022INFLOW (KAF)670120656
74LLKW1SPOKANE-AT LONGLAKE11-28-2022INFLOW (KAF)879158356
75GCDW1COLUMBIA-GRAND COULEE DAM11-28-2022INFLOW (KAF)172262169679
76CHJW1COLUMBIA-CHIEF JOSEPH DAM11-28-2022INFLOW (KAF)201962386185
77WELW1COLUMBIA-WELLS DAM11-28-2022INFLOW (KAF)204452450783
78CHDW1CHELAN-LAKE CHELAN DAM11-28-2022INFLOW (KAF)6220231
79RRHW1COLUMBIA-ROCKY REACH DAM11-28-2022INFLOW (KAF)207212489983
80WANW1COLUMBIA-WANAPUM DAM11-28-2022INFLOW (KAF)208672552282
81PRWW1COLUMBIA-PRIEST RAPIDS DAM11-28-2022INFLOW (KAF)208672559482
82KEDW1YAKIMA-KEECHELUS LAKE11-28-2022INFLOW (KAF)295356
83KADW1KACHESS-KACHESS DAM11-28-2022INFLOW (KAF)285156
84CLUW1CLE ELUM-CLE ELUM LAKE11-28-2022INFLOW (KAF)4911542
85BUDW1BUMPING-BUMPING LAKE DAM11-28-2022INFLOW (KAF)153937
86RILW1TIETON-RIMROCK LAKE NEAR RIMROCK11-28-2022INFLOW (KAF)427656
87IPDI1HENRYS FORK-ISLAND PARK DAM11-28-2022INFLOW (KAF)7810575
88JLKW4SNAKE-JACKSON LAKE AT DAM11-28-2022INFLOW (KAF)7911668
89PLDI1SF SNAKE-PALISADES DAM11-28-2022INFLOW (KAF)46758380
90RIDI1WILLOW CREEK-RIRIE DAM11-28-2022INFLOW (KAF)71448
91AFRI1SNAKE-AMERICAN FALLS RESERVOIR11-28-2022INFLOW (KAF)12041203100
92MACI1BIG LOST-MACKAY RESERVOIR NEAR MACKAY11-28-2022INFLOW (KAF)313882
93MAGI1BIG WOOD-MAGIC DAM11-28-2022INFLOW (KAF)242981
94LWRI1LITTLE WOOD-LITTLE WOOD DAM11-28-2022INFLOW (KAF)81553
95OWYO3OWYHEE-OWYHEE DAM11-28-2022INFLOW (KAF)13715489
96ARAI1SF BOISE-ANDERSON RANCH DAM11-28-2022INFLOW (KAF)658576
97LUCI1BOISE-LUCKY PEAK DAM11-28-2022INFLOW (KAF)16418987
98WRMO3MALHEUR-WARM SPRINGS DAM11-28-2022INFLOW (KAF)174143
99BERO3MALHEUR-AGENCY VALLEY DAM11-28-2022INFLOW (KAF)132356
100BULO3BULLY CREEK-BULLY CREEK DAM11-28-2022INFLOW (KAF)184407
101CSDI1NF PAYETTE-CASCADE DAM11-28-2022INFLOW (KAF)5710555
102DEDI1DEADWOOD-NEAR LOWMAN11-28-2022INFLOW (KAF)121963
103BRNI1SNAKE-BROWNLEE DAM11-28-2022INFLOW (KAF)2975321293
104DWRI1NF CLEARWATER-DWORSHAK DAM11-28-2022INFLOW (KAF)45579957
105LGDW1SNAKE-LOWER GRANITE DAM11-28-2022INFLOW (KAF)5188752069
106LGSW1SNAKE-LITTLE GOOSE DAM11-28-2022INFLOW (KAF)5187755669
107LMNW1SNAKE-LOWER MONUMENTAL DAM11-28-2022INFLOW (KAF)5615768673
108IHDW1SNAKE-ICE HARBOR DAM11-28-2022INFLOW (KAF)5615771673
109MCDW1COLUMBIA-MCNARY DAM11-28-2022INFLOW (KAF)270923444279
110JDAO3COLUMBIA-JOHN DAY DAM11-28-2022INFLOW (KAF)286083612479
111TDAO3COLUMBIA-THE DALLES DAM11-28-2022INFLOW (KAF)287883674778
112BONO3COLUMBIA-BONNEVILLE DAM11-28-2022INFLOW (KAF)295753849777
113HOPI1PEND OREILLE-PEND OREILLE LAKE NR HOPE11-28-2022LAKE ELEVATION (FT)MMM
114BFEI1KOOTENAI-AT BONNERS FERRY11-28-2022STAGE (FT)MMM
115SJMI1ST JOE-AT ST MARIES11-28-2022STAGE (FT)MMM